Date String (YYYY-MM-DD hh:mm:ss) UTC,Instrument flags,Ambient pressure (hPa),Sample flow (lpm),Bypass flow (lpm),Sample temperature (°C),Ambient temperature (°C),ASC tube jacket temperature (°C),LED temperature (°C),Box temperature (°C),Sample RH (%),Span deviation,Mass concentration (μg/m³),Mass concentration (μg/m³),Mass concentration (μg/m³)
DateTimeUTC,F1_M11,P_M11,Q1_M11,Q2_M11,T1_M11,T2_M11,T3_M11,T4_M11,T5_M11,U1_M11,ZSPAN_M11,X0_M11,X2_M11,X1_M11
2022-02-24 20:00:00,,0821.3,5.00,0.00,22.4,21.8,00.0,31.2,24.3,05.3,0000.1,0012.43,0007.78,0007.11
2022-02-24 20:01:00,,0821.3,5.01,0.00,22.5,21.8,00.0,31.3,24.3,05.3,0000.4,0012.38,0007.76,0007.14
2022-02-24 20:02:00,,0821.3,5.00,0.00,22.5,21.8,00.0,31.3,24.4,05.3,0000.8,0012.68,0007.75,0007.15
2022-02-24 20:03:00,,0821.3,5.00,0.00,22.5,21.9,00.0,31.3,24.4,05.3,0000.5,0012.83,0007.80,0007.16
2022-02-24 20:04:00,,0821.3,5.00,0.00,22.5,21.9,00.0,31.3,24.4,05.3,0000.2,0012.84,0007.81,0007.19
2022-02-24 20:05:00,,0821.3,5.00,0.00,22.5,21.9,00.0,31.3,24.4,05.4,-000.2,0012.97,0007.82,0007.20
2022-02-24 20:06:00,,0821.3,5.00,0.00,22.6,21.9,00.0,31.3,24.4,05.4,-000.1,0013.10,0007.81,0007.22
2022-02-24 20:07:00,,0821.3,4.99,0.00,22.6,21.9,00.0,31.4,24.4,05.3,-000.1,0013.11,0007.82,0007.24
2022-02-24 20:08:00,,0821.3,5.01,0.00,22.6,21.9,00.0,31.4,24.4,05.3,-000.3,0012.72,0007.84,0007.25
2022-02-24 20:09:00,,0821.4,5.01,0.00,22.6,21.9,00.0,31.4,24.4,05.3,-000.3,0012.13,0007.84,0007.24
2022-02-24 20:10:00,,0821.4,4.99,0.00,22.6,21.9,00.0,31.4,24.4,05.4,0000.1,0012.75,0007.85,0007.24
2022-02-24 20:11:00,,0821.3,4.99,0.00,22.6,21.9,00.0,31.4,24.4,05.4,0000.1,0012.90,0007.86,0007.24
2022-02-24 20:12:00,,0821.3,5.00,0.00,22.6,21.9,00.0,31.4,24.4,05.5,-000.2,0013.31,0007.87,0007.24
2022-02-24 20:13:00,,0821.3,5.01,0.00,22.5,21.8,00.0,31.4,24.3,05.4,-000.1,0013.01,0007.87,0007.24
2022-02-24 20:14:00,,0821.3,5.00,0.00,22.5,21.8,00.0,31.4,24.3,05.4,0000.3,0012.95,0007.87,0007.24
2022-02-24 20:15:00,,0821.3,5.00,0.00,22.5,21.8,00.0,31.4,24.3,05.5,0000.8,0012.98,0007.87,0007.22
2022-02-24 20:16:00,,0821.3,4.99,0.00,22.5,21.8,00.0,31.4,24.3,05.5,0001.2,0012.88,0007.88,0007.22
2022-02-24 20:17:00,,0821.3,4.99,0.00,22.5,21.8,00.0,31.4,24.3,05.5,0001.2,0013.05,0007.86,0007.20
2022-02-24 20:18:00,,0821.3,5.00,0.00,22.5,21.8,00.0,31.4,24.3,05.4,0001.1,0013.69,0007.83,0007.18
2022-02-24 20:19:00,,0821.2,5.00,0.00,22.5,21.9,00.0,31.4,24.4,05.5,0001.0,0014.09,0007.84,0007.17
2022-02-24 20:20:00,,0821.2,5.00,0.00,22.5,21.8,00.0,31.4,24.3,05.4,0001.0,0014.06,0007.84,0007.17
2022-02-24 20:21:00,,0821.2,5.00,0.00,22.5,21.8,00.0,31.4,24.3,05.5,0001.4,0013.58,0007.84,0007.15
2022-02-24 20:22:00,,0821.2,5.00,0.00,22.5,21.8,00.0,31.4,24.3,05.5,0001.8,0013.74,0007.83,0007.15
2022-02-24 20:23:00,,0821.2,5.01,0.00,22.5,21.8,00.0,31.4,24.3,05.5,0001.8,0013.29,0007.80,0007.14
2022-02-24 20:24:00,,0821.3,5.00,0.00,22.5,21.8,00.0,31.4,24.3,05.6,0001.4,0013.28,0007.79,0007.13
2022-02-24 20:25:00,,0821.4,5.00,0.00,22.5,21.8,00.0,31.4,24.3,05.7,0001.4,0013.49,0007.76,0007.12
2022-02-24 20:26:00,,0821.4,5.00,0.00,22.5,21.8,00.0,31.4,24.4,05.6,0001.3,0014.59,0007.74,0007.10
2022-02-24 20:27:00,,0821.4,5.01,0.00,22.6,21.9,00.0,31.4,24.4,05.6,0001.1,0015.08,0007.69,0007.07
2022-02-24 20:28:00,,0821.3,5.00,0.00,22.6,21.9,00.0,31.4,24.4,05.6,0000.9,0014.73,0007.69,0007.06
2022-02-24 20:29:00,,0821.2,5.00,0.00,22.6,21.9,00.0,31.4,24.4,05.5,0001.4,0013.80,0007.66,0007.03
2022-02-24 20:30:00,,0821.3,4.99,0.00,22.6,21.9,00.0,31.4,24.4,05.6,0001.7,0013.48,0007.61,0007.00
2022-02-24 20:31:00,,0821.2,5.01,0.00,22.6,21.9,00.0,31.4,24.5,05.6,0001.5,0013.71,0007.55,0006.95
2022-02-24 20:32:00,,0821.2,5.01,0.00,22.6,21.9,00.0,31.4,24.5,05.6,0001.0,0013.91,0007.50,0006.92
2022-02-24 20:33:00,,0821.2,4.99,0.00,22.6,21.9,00.0,31.4,24.5,05.6,0000.4,0013.93,0007.49,0006.89
2022-02-24 20:34:00,,0821.3,5.00,0.00,22.6,21.9,00.0,31.4,24.4,05.6,0000.6,0014.48,0007.49,0006.88
2022-02-24 20:35:00,,0821.3,4.99,0.00,22.6,21.9,00.0,31.5,24.5,05.7,0000.7,0014.39,0007.47,0006.86
2022-02-24 20:36:00,,0821.3,5.01,0.00,22.6,21.9,00.0,31.5,24.5,05.8,-000.2,0014.03,0007.43,0006.82
2022-02-24 20:37:00,,0821.3,5.00,0.00,22.6,21.9,00.0,31.5,24.5,05.8,-000.3,0013.12,0007.39,0006.80
2022-02-24 20:38:00,,0821.3,4.99,0.00,22.6,21.9,00.0,31.5,24.5,05.8,-000.2,0012.61,0007.40,0006.79
2022-02-24 20:39:00,,0821.2,5.00,0.00,22.6,21.9,00.0,31.5,24.5,05.8,0000.4,0012.48,0007.34,0006.76
2022-02-24 20:40:00,,0821.2,5.00,0.00,22.6,21.9,00.0,31.5,24.5,05.8,0000.4,0013.47,0007.33,0006.76
2022-02-24 20:41:00,,0821.3,5.01,0.00,22.6,21.9,00.0,31.5,24.5,05.7,0000.1,0013.63,0007.33,0006.75
2022-02-24 20:42:00,,0821.4,5.00,0.00,22.6,21.9,00.0,31.5,24.5,05.7,0000.3,0013.40,0007.36,0006.76
2022-02-24 20:43:00,,0821.4,5.00,0.00,22.6,21.9,00.0,31.5,24.5,05.7,0000.6,0013.49,0007.34,0006.76
2022-02-24 20:44:00,,0821.4,4.99,0.00,22.6,21.9,00.0,31.5,24.5,05.7,0001.2,0013.20,0007.29,0006.77
2022-02-24 20:45:00,,0821.4,5.00,0.00,22.7,22.0,00.0,31.5,24.5,05.7,0001.2,0012.47,0007.28,0006.77
2022-02-24 20:46:00,,0821.3,5.00,0.00,22.7,22.0,00.0,31.5,24.5,05.7,0001.0,0012.48,0007.28,0006.76
2022-02-24 20:47:00,,0821.3,5.01,0.00,22.7,22.0,00.0,31.5,24.6,05.7,0001.8,0012.78,0007.36,0006.80
2022-02-24 20:48:00,,0821.4,5.00,0.00,22.7,22.0,00.0,31.5,24.6,05.7,0001.7,0012.55,0007.42,0006.83
2022-02-24 20:49:00,,0821.4,4.99,0.00,22.7,22.0,00.0,31.5,24.6,05.8,0001.9,0012.53,0007.43,0006.85
2022-02-24 20:50:00,,0821.3,5.00,0.00,22.7,22.0,00.0,31.5,24.5,05.7,0001.8,0012.63,0007.50,0006.89
2022-02-24 20:51:00,,0821.4,5.00,0.00,22.7,22.0,00.0,31.5,24.5,05.7,0001.4,0012.15,0007.59,0006.94
2022-02-24 20:52:00,,0821.4,5.00,0.00,22.7,22.0,00.0,31.5,24.6,05.7,0001.3,0012.82,0007.67,0006.99
2022-02-24 20:53:00,,0821.5,5.00,0.00,22.7,22.0,00.0,31.5,24.6,05.9,0001.4,0013.13,0007.70,0007.03
2022-02-24 20:54:00,,0821.4,4.99,0.00,22.7,22.0,00.0,31.5,24.6,05.8,0001.4,0013.42,0007.77,0007.06
2022-02-24 20:55:00,,0821.4,4.99,0.00,22.7,21.9,00.0,31.5,24.5,05.7,0001.0,0013.91,0007.85,0007.08
2022-02-24 20:56:00,,0821.6,4.99,0.00,22.6,21.9,00.0,31.5,24.4,05.8,0000.8,0014.04,0007.87,0007.10
2022-02-24 20:57:00,,0821.4,5.01,0.00,22.6,21.9,00.0,31.5,24.4,05.9,0000.7,0014.15,0007.89,0007.12
2022-02-24 20:58:00,,0821.5,4.99,0.00,22.6,21.9,00.0,31.5,24.4,05.8,0000.6,0014.10,0007.88,0007.13
2022-02-24 20:59:00,,0821.4,5.00,0.00,22.6,21.9,00.0,31.5,24.4,05.8,0000.6,0014.16,0007.90,0007.17
